Home > Weather > Funchal > Past weeks

Flag for Portugal Past Weather in Funchal, Madeira, Portugal — Yesterday and Last 2 Weeks

Now
68 °F

Scattered clouds.


Feels Like: 68 °F
Forecast: 60 / 71 °F
Wind: 7 mph from South

Location: Aeroporto Da Madeira

Current Time: May 28, 2016 at 5:06:45 PM

Latest Report: May 28, 2016 at 4:30 PM


Visibility: N/A

Pressure: 30.24 "Hg

Humidity: 69%

Dew Point: 57 °F

Location of FunchalLocation

Past Weather in Funchal — Graph

°F

Funchal Temperature Yesterday

Maximum temperature yesterday: 72 °F (at 2:30 PM)
Minimum temperature yesterday: 61 °F (at 4:30 AM)
Average temperature yesterday: 66 °F

High & Low Weather Summary for the Past Weeks

 TemperatureHumidityPressure
High72 °F (May 23, 1:00 PM)88% (May 23, 12:00 AM)30.30 "Hg (May 23, 12:00 AM)
Low59 °F (May 26, 1:30 AM)44% (May 24, 7:30 PM)29.89 "Hg (May 26, 4:00 AM)
Average65 °F69%30.14 "Hg
* Reported May 13 3:00 PM — May 28 3:30 PM, Funchal, Weather by CustomWeather, © 2016

Note: Actual official high and low records may vary slightly from our data, if they occured in-between our weather recording intervals... More about our weather records

Advertising

Funchal Weather History for the Previous 24 Hours

Scroll right to see more
 ConditionsComfort  
Time TempWeatherWind HumidityBarometerVisibility
3:30 PM
Sat, May 28
70 °FScattered clouds.6 mph64%30.24 "HgN/A
3:00 PM70 °FScattered clouds.7 mph64%30.24 "HgN/A
2:30 PM68 °FScattered clouds.8 mph69%30.21 "HgN/A
2:00 PM70 °FPassing clouds.7 mph60%30.21 "HgN/A
1:30 PM68 °FPassing clouds.6 mph64%30.21 "HgN/A
1:00 PM68 °FPassing clouds.5 mph60%30.21 "HgN/A
12:30 PM70 °FPassing clouds.8 mph60%30.21 "HgN/A
12:00 PM68 °FPassing clouds.8 mph64%30.21 "HgN/A
11:30 AM70 °FPassing clouds.6 mph60%30.18 "HgN/A
11:00 AM70 °FPassing clouds.6 mph60%30.18 "HgN/A
10:30 AM68 °FPassing clouds.7 mph60%30.18 "HgN/A
10:00 AM68 °FPassing clouds.6 mph64%30.18 "HgN/A
9:30 AM66 °FPassing clouds.3 mph64%30.15 "HgN/A
9:00 AM66 °FPassing clouds.No wind64%30.15 "HgN/A
8:30 AM66 °FPassing clouds.2 mph60%30.15 "HgN/A
8:00 AM63 °FPassing clouds.3 mph68%30.12 "HgN/A
7:30 AM61 °FPassing clouds.5 mph72%30.12 "HgN/A
7:00 AM61 °FPassing clouds.5 mph72%30.12 "HgN/A
6:30 AM61 °FPassing clouds.6 mph77%30.09 "HgN/A
6:00 AM61 °FPassing clouds.6 mph77%30.09 "HgN/A
5:30 AM63 °FPassing clouds.8 mph73%30.09 "HgN/A
5:00 AM63 °FPassing clouds.7 mph73%30.09 "HgN/A
4:30 AM61 °FPassing clouds.6 mph77%30.09 "HgN/A
4:00 AM61 °FPassing clouds.5 mph77%30.07 "HgN/A
3:30 AM61 °FPassing clouds.6 mph83%30.07 "HgN/A
3:00 AM63 °FPassing clouds.7 mph77%30.07 "HgN/A
2:30 AM61 °FPassing clouds.2 mph83%30.07 "HgN/A
2:00 AM61 °FPassing clouds.2 mph77%30.09 "HgN/A
1:30 AM63 °FPassing clouds.7 mph73%30.07 "HgN/A
1:00 AM63 °FPassing clouds.3 mph73%30.07 "HgN/A
12:30 AM63 °FPassing clouds.3 mph73%30.07 "HgN/A
12:00 AM63 °FPassing clouds.No wind68%30.07 "HgN/A
11:30 PM
Fri, May 27
63 °FPassing clouds.3 mph68%30.07 "HgN/A
11:00 PM63 °FPassing clouds.8 mph77%30.04 "HgN/A
10:30 PM64 °FScattered clouds.2 mph73%30.04 "HgN/A
10:00 PM64 °FScattered clouds.2 mph78%30.04 "HgN/A
9:30 PM64 °FScattered clouds.5 mph78%30.04 "HgN/A
9:00 PM66 °FScattered clouds.12 mph68%30.01 "HgN/A
8:30 PM68 °FScattered clouds.13 mph64%30.01 "HgN/A
8:00 PM70 °FScattered clouds.12 mph60%30.01 "HgN/A
7:30 PM70 °FScattered clouds.14 mph60%29.98 "HgN/A
7:00 PM70 °FScattered clouds.16 mph60%29.98 "HgN/A
6:30 PM70 °FPassing clouds.16 mph60%29.98 "HgN/A
6:00 PM70 °FPassing clouds.17 mph60%29.98 "HgN/A
5:30 PM68 °FPassing clouds.20 mph69%29.98 "HgN/A
5:00 PM70 °FScattered clouds.23 mph64%29.98 "HgN/A
Weather by CustomWeather, © 2016

See weather overviewHow to use our weather pages